Terug naar catalogus

STARLINK-3765

ActiefCommunicatieVLEO
NORAD 52295·PAYLOAD·🇺🇸 United States

Gelanceerd Apr 21, 2022 vanaf Cape Canaveral Space Force Station

Loading…

Volgende Passages (komende 24 uur)

TLE

VersSource: CelesTrak SupGP

Epoch: Sep 15, 2026, 01:52 UTC

1 52295C 22041AL  26258.07826389  .00835460  00000+0  23710-2 0  2586
2 52295  53.1581 306.8998 0001077  91.3154 347.4104 15.92217661    13

Volg STARLINK-3765 in realtime met AllMySat

Download on the App Store